Theta_e
319 317 315 314 314 313 312 310 311 312 314 315 314 314 314 314 314 313 318 319 322 321 316 320 322 322 323 324 327 323 325 325 327 327 327 325 326 324 323 327 329 331 332 332 335
315 318 318 316 313 314 313 311 310 310 313 315 314 312 313 312 310 313 311 317 318 320 319 320 319 321 322 323 325 323 322 324 322 321 320 325 325 323 325 326 329 332 333 335 335
311 315 316 318 317 314 314 312 311 310 310 313 313 312 311 309 316 313 313 310 313 317 317 322 323 323 322 321 324 324 324 320 320 327 324 326 325 325 325 327 324 331 333 332 332
313 311 313 314 318 317 314 313 312 310 311 311 312 312 310 314 301 315 308 308 315 314 320 322 322 323 323 322 322 326 323 322 321 324 325 326 323 325 324 324 324 325 330 332 331
310 313 313 311 314 318 316 313 312 311 310 311 312 312 310 315 316 312 311 310 309 316 323 321 323 321 322 319 320 322 322 324 323 324 324 324 325 325 323 321 320 326 330 330 331
311 309 313 313 311 314 318 315 313 312 310 311 312 311 312 312 312 312 312 315 318 316 321 321 322 321 321 323 320 320 323 323 322 320 324 325 324 324 322 319 318 319 323 325 328
311 311 309 312 313 311 316 317 315 313 310 310 312 312 312 312 310 312 311 316 317 317 319 320 320 321 321 322 320 322 324 322 321 320 324 322 324 325 321 320 318 316 317 320 321
309 309 310 310 312 312 312 317 316 314 312 310 312 313 312 310 311 310 313 316 319 316 316 318 319 320 321 321 322 323 321 323 318 319 320 322 323 320 318 318 319 315 314 314 317
308 309 309 309 310 310 312 314 317 315 313 310 312 312 313 310 310 309 311 315 318 316 315 316 319 320 320 320 320 321 319 320 319 315 319 322 323 320 318 316 314 313 312 313 314
307 308 308 309 310 310 312 312 315 316 314 312 312 313 310 311 310 310 309 313 317 317 318 319 320 320 319 320 321 319 319 317 316 315 316 322 321 317 316 316 315 313 313 313 314
306 307 308 308 309 310 311 313 315 315 314 312 312 310 312 311 310 309 310 312 316 316 318 318 321 321 320 320 316 314 317 317 314 316 319 318 318 315 314 312 311 311 311 312 314
304 305 306 306 308 309 311 313 314 313 316 311 312 310 311 311 311 310 310 315 316 316 315 318 319 317 317 317 319 318 318 316 314 315 315 315 314 312 312 312 313 312 309 310 310
303 303 304 304 304 307 309 312 313 312 313 314 311 311 310 310 311 310 309 313 316 316 317 315 315 316 318 318 319 318 317 315 315 314 313 313 312 312 311 311 312 311 310 310 310
302 302 302 303 303 303 305 308 311 312 314 313 313 313 311 311 312 310 309 313 314 316 315 315 313 315 317 318 316 318 314 316 316 315 316 313 315 312 310 309 311 311 310 310 309
302 302 303 302 301 303 304 306 310 310 316 312 313 311 311 311 310 309 309 311 313 314 312 314 313 313 316 315 315 316 314 315 315 315 316 315 314 310 309 311 310 309 309 309 309
302 301 301 303 301 301 304 308 310 313 315 313 312 313 313 312 310 309 311 311 311 312 313 311 313 310 312 312 312 314 314 314 314 314 313 313 312 309 308 308 310 310 310 311 311
302 301 301 301 301 301 301 303 311 313 309 311 312 313 314 314 312 311 312 314 312 315 312 309 312 313 311 314 313 315 314 310 317 316 312 311 314 310 309 308 309 310 309 309 311
302 301 301 300 300 301 301 302 310 310 311 309 311 312 314 313 311 311 312 312 310 310 311 314 315 313 314 313 315 316 315 312 311 315 313 310 314 310 309 309 309 306 309 312 309
302 302 301 300 300 300 300 302 305 308 309 310 312 314 314 313 312 312 312 311 311 310 311 313 312 311 313 313 313 315 317 311 310 302 307 308 308 307 308 309 309 310 310 308 309
302 301 300 300 300 300 301 302 302 303 307 310 312 313 315 313 314 313 312 310 310 310 307 310 312 312 312 312 312 314 312 315 307 304 308 306 306 308 308 308 307 309 309 309 308
302 301 300 300 299 299 299 299 300 301 301 306 311 312 313 313 313 313 312 309 309 310 309 308 308 307 312 313 314 315 315 313 311 309 309 306 303 301 306 306 307 307 309 306 305
301 301 299 300 299 298 298 297 300 300 301 302 302 310 312 313 314 314 312 310 308 309 310 307 307 312 314 310 310 312 314 314 312 311 309 309 309 305 305 305 307 308 307 304 305
298 298 299 298 298 298 292 293 297 300 302 304 305 303 309 313 314 312 310 309 308 308 310 309 304 313 313 311 308 311 310 313 311 308 310 308 306 304 304 305 306 305 305 305 305
297 298 300 298 296 296 295 294 299 300 301 302 302 304 305 311 310 312 311 308 307 308 310 309 308 309 309 310 309 311 312 310 313 313 310 309 306 304 304 306 305 305 304 303 302
295 296 293 299 296 296 295 293 297 298 300 302 301 303 305 310 312 312 310 309 308 309 310 309 310 307 306 307 308 309 311 310 311 311 312 309 308 308 307 305 305 304 306 303 305
296 296 290 290 297 296 296 297 297 298 301 300 301 301 302 305 306 312 310 309 309 308 310 310 310 306 304 305 307 308 308 310 310 310 310 309 309 307 306 305 304 305 304 305 306
294 296 295 296 296 298 297 297 299 299 299 302 301 301 301 303 304 307 309 308 308 309 310 310 310 308 309 305 306 305 307 308 309 310 309 310 308 308 306 306 306 305 304 304 303
Wind_Speed
27 25 23 20 17 16 14 15 15 14 10 9 7 8 9 10 10 9 5 6 3 4 6 7 5 4 6 2 0 3 3 3 5 1 3 3 4 1 4 4 2 3 4 10 27
21 24 27 23 21 18 16 14 14 13 14 10 9 7 8 8 8 11 12 8 9 8 6 7 5 5 2 3 1 4 4 7 5 2 5 5 4 7 4 2 3 5 10 23 24
25 20 22 27 25 22 19 16 14 14 12 12 9 6 5 3 3 3 3 17 16 10 5 6 7 3 3 2 3 5 5 4 5 4 6 1 4 5 7 0 6 8 13 14 18
23 25 22 21 26 26 22 19 16 14 12 12 10 6 2 2 5 3 2 4 11 14 5 4 2 1 3 4 4 2 6 4 6 2 3 2 7 4 5 7 4 6 15 14 11
25 24 25 25 22 26 26 21 19 16 13 12 10 6 4 3 6 4 1 4 8 12 9 4 4 3 2 3 3 4 4 4 7 3 2 3 3 3 6 8 5 8 15 12 14
28 29 25 24 25 23 27 24 21 18 16 15 13 10 3 4 4 5 3 4 4 13 8 8 4 4 3 2 2 2 1 3 6 5 4 2 5 3 6 6 9 4 10 10 13
28 26 28 26 24 24 24 27 23 20 18 16 16 14 4 9 4 3 4 4 3 11 6 12 11 2 2 3 5 3 3 5 7 4 4 4 5 6 8 10 9 11 9 9 14
29 29 28 28 26 24 24 26 25 22 20 17 15 12 6 14 12 2 3 3 4 7 11 11 11 1 1 1 4 4 3 1 5 5 6 7 8 9 9 9 13 11 10 9 9
27 28 29 28 27 26 24 23 26 24 21 17 12 8 5 9 15 23 6 5 5 8 7 8 4 3 1 4 3 1 4 4 6 9 6 8 6 8 10 8 8 9 9 10 10
27 26 26 27 28 25 23 22 24 24 21 15 6 5 6 6 13 21 22 13 5 4 3 2 3 4 1 5 9 7 5 4 6 5 8 7 10 6 8 9 9 8 9 9 9
30 25 21 21 25 25 22 14 7 7 21 8 10 4 2 17 19 15 25 9 5 4 6 5 5 14 18 16 4 7 5 8 4 3 5 5 6 8 7 8 10 11 10 10 11
31 28 21 20 18 22 22 9 15 4 8 17 11 15 3 23 7 9 23 8 14 15 6 3 17 8 8 8 12 11 4 4 5 3 1 4 8 11 11 11 17 16 12 13 6
32 31 27 20 17 18 23 27 18 5 1 12 9 16 5 14 7 13 21 7 9 13 17 8 6 18 12 9 15 12 9 5 6 5 3 5 8 9 8 10 19 17 15 12 13
32 31 30 25 15 14 11 30 23 11 7 7 20 8 13 5 5 14 21 9 6 15 10 11 9 15 12 16 9 8 6 5 1 3 3 4 6 6 9 10 7 14 12 15 11
31 33 30 32 10 12 8 20 21 8 16 9 14 13 13 16 14 10 30 11 9 9 9 11 13 13 18 8 11 6 6 6 4 2 2 1 3 7 6 7 12 9 10 10 12
34 31 30 29 23 22 12 22 21 10 15 9 12 21 21 21 11 15 18 3 4 5 11 8 2 12 10 8 8 8 6 5 4 3 4 8 7 4 6 9 4 5 7 6 4
36 34 32 32 18 26 23 4 14 19 5 7 8 21 30 17 19 19 22 20 11 10 10 5 11 3 8 9 6 7 9 1 1 4 7 4 7 6 6 7 5 1 7 6 6
38 35 37 32 25 19 17 6 24 28 14 2 10 22 26 16 21 21 23 24 20 8 12 12 9 15 7 11 11 14 13 6 8 5 4 5 8 6 12 12 4 7 6 4 7
37 33 29 30 27 26 5 9 6 6 19 9 14 22 18 17 16 17 22 26 26 21 10 13 10 5 6 5 14 8 15 7 5 2 3 5 6 7 7 7 5 7 4 8 7
37 26 25 30 29 20 7 10 2 4 6 15 18 11 22 24 17 21 23 22 18 25 4 6 3 6 8 4 5 15 9 10 1 3 4 5 5 7 2 9 9 7 9 8 6
30 9 21 33 28 6 8 5 7 10 5 2 21 23 18 14 16 19 19 12 23 23 18 5 4 4 11 14 20 7 13 5 5 5 6 2 6 8 18 13 8 7 10 9 7
9 8 34 39 8 4 10 9 10 7 9 8 2 8 22 25 17 22 26 24 29 22 29 8 5 6 19 1 10 16 22 18 7 7 3 3 7 1 7 4 10 10 8 6 7
11 3 36 40 12 11 6 6 3 7 12 10 8 8 7 19 19 18 26 27 26 24 23 15 2 7 4 3 4 13 9 18 7 2 9 6 10 10 11 7 7 9 7 5 5
5 5 7 10 10 13 8 7 12 12 10 9 9 9 7 18 18 22 19 11 20 28 22 19 5 13 17 24 11 15 20 18 19 6 15 13 20 8 5 3 4 7 7 8 7
3 5 4 17 13 19 16 9 9 6 12 15 5 12 14 6 19 11 19 18 16 26 21 15 12 12 13 7 9 18 22 23 20 26 17 26 17 22 14 9 8 6 5 6 4
5 5 2 4 12 13 17 16 18 9 12 16 20 24 19 17 17 17 22 18 21 18 23 17 16 6 5 5 7 10 20 23 26 28 19 23 21 29 13 8 9 3 6 6 4
3 4 6 7 9 14 17 24 23 15 9 12 24 21 21 28 26 23 24 26 23 28 28 25 19 15 19 7 6 2 18 25 23 26 29 23 33 31 9 9 8 4 9 7 7
Wind_Direction
237 237 237 238 237 236 236 236 243 241 238 236 255 270 286 295 295 292 266 242 263 287 322 321 321 278 289 283 54 57 63 230 245 259 213 194 131 96 144 101 56 44 110 140 153
244 239 236 237 238 236 234 234 235 240 233 236 249 270 284 302 303 259 235 247 267 281 295 336 322 277 320 224 249 115 142 226 224 283 318 209 157 158 107 152 123 74 94 135 150
246 243 239 237 235 236 235 233 232 237 235 233 246 264 291 321 309 255 252 237 244 245 258 312 312 291 209 317 215 187 189 241 278 37 19 300 175 155 121 241 220 183 164 153 155
243 244 242 239 236 235 233 231 231 231 227 222 227 242 260 140 209 145 341 251 220 226 226 259 258 274 182 210 232 183 228 244 298 32 36 357 310 336 141 205 132 127 164 156 164
246 242 241 239 237 234 231 228 228 227 223 217 220 218 176 211 250 246 46 359 192 192 205 228 218 188 193 222 250 194 253 290 301 277 185 328 294 316 299 280 330 117 156 174 177
246 245 240 236 235 235 230 228 225 222 218 211 206 197 199 214 188 167 202 35 151 184 213 236 222 228 260 292 155 356 206 290 315 282 257 216 286 54 282 303 318 295 186 192 188
239 238 238 239 234 231 231 225 223 220 214 210 203 196 227 225 195 216 222 166 202 199 225 246 262 3 352 350 295 83 37 349 280 261 226 94 302 241 258 287 283 284 277 213 206
241 240 237 234 234 231 228 226 220 218 216 209 203 195 239 245 220 139 147 188 203 218 235 249 258 246 278 268 26 50 36 251 279 222 235 127 253 249 249 254 262 256 257 260 234
234 234 235 232 232 231 225 226 221 215 213 203 180 192 240 237 217 223 250 218 200 210 234 260 203 160 339 129 48 241 227 239 312 246 222 175 246 236 245 255 272 266 257 262 261
232 232 229 225 224 225 224 221 222 215 203 185 185 164 255 194 189 206 213 219 182 177 93 100 127 159 155 157 194 193 187 234 223 278 173 204 240 257 271 279 262 257 254 253 251
228 220 215 219 223 216 214 207 197 206 189 185 170 230 163 182 189 187 190 194 206 135 161 201 181 201 204 205 210 168 161 202 254 260 185 236 267 269 267 281 281 271 268 258 255
226 215 208 209 213 214 204 211 206 145 185 196 181 215 357 165 155 183 181 163 186 189 159 150 222 209 199 206 216 246 255 264 281 194 150 287 267 269 254 246 246 253 251 253 256
221 222 213 206 205 209 212 220 197 117 246 194 196 193 170 176 178 195 175 174 188 184 195 180 215 192 214 202 217 222 211 219 229 344 342 317 290 255 275 248 249 243 242 243 234
218 214 210 202 204 206 222 220 220 196 240 211 193 206 198 150 221 181 187 166 176 193 184 237 250 189 203 219 192 222 184 201 208 65 228 86 288 300 281 276 237 236 230 238 235
214 211 203 197 183 188 216 216 204 160 239 165 178 170 170 176 133 199 180 194 187 174 162 206 183 199 207 189 187 215 169 204 174 147 329 224 282 262 251 271 263 240 232 232 232
209 204 201 200 203 199 179 195 182 207 213 172 153 176 166 192 181 149 170 182 172 189 216 209 193 199 189 186 173 147 92 81 67 93 270 194 189 244 214 229 290 241 239 210 174
206 202 196 195 200 198 209 199 205 218 140 166 175 175 178 181 179 163 176 192 175 176 201 191 231 235 169 163 169 146 131 56 220 215 235 233 198 248 251 250 207 352 170 157 149
200 197 199 206 197 178 185 201 218 217 186 144 158 176 189 165 195 174 172 189 209 205 164 179 204 204 198 189 183 175 168 156 186 200 242 181 227 254 229 246 253 197 168 131 62
189 194 196 197 187 182 180 223 225 192 192 151 167 180 187 187 163 172 186 194 195 194 167 190 227 157 204 150 158 174 198 144 113 23 64 226 292 293 245 258 207 163 130 104 128
179 186 198 185 183 174 208 225 287 276 249 189 200 183 192 189 176 185 186 197 198 204 183 177 154 209 184 127 237 185 144 211 35 152 237 257 257 231 186 233 240 229 144 146 145
169 178 182 179 168 183 222 214 196 238 249 262 217 203 205 189 186 188 186 191 197 196 211 166 106 277 148 209 184 152 190 191 144 175 190 221 252 215 219 242 203 188 164 154 153
163 184 161 155 164 186 222 168 183 213 217 202 318 229 203 190 190 195 199 200 192 184 199 196 138 166 196 279 195 209 202 189 189 204 185 161 263 232 158 44 140 158 166 159 141
161 126 164 160 179 195 196 205 186 165 193 171 220 205 279 193 193 191 201 202 185 185 189 192 188 137 135 339 290 214 200 206 210 87 200 172 254 200 242 154 152 146 153 148 119
137 150 150 183 191 184 161 202 213 210 227 208 224 222 273 221 198 192 193 200 182 199 189 178 159 194 194 206 147 199 203 208 210 217 228 216 244 256 233 196 133 165 177 157 154
137 160 177 176 195 187 169 177 179 191 211 189 214 205 221 274 199 185 201 202 193 197 194 188 190 206 223 157 159 199 199 206 209 223 217 239 242 252 235 256 258 192 149 142 138
127 145 94 110 144 163 185 210 212 189 173 214 228 231 218 229 257 201 194 196 196 188 198 203 206 176 221 201 152 186 204 206 213 224 229 247 248 250 251 230 236 195 173 187 142
119 111 115 140 146 169 201 211 213 193 219 198 213 231 230 222 214 268 206 197 187 185 187 193 202 192 226 183 113 0 206 202 214 223 215 225 236 249 230 218 234 223 191 190 155